Time,TemperatureF,DewpointF,PressureIn,WindDirection,WindDirectionDegrees,WindSpeedMPH,WindSpeedGustMPH,Humidity,HourlyPrecipIn,Conditions,Clouds,dailyrainin,SolarRadiationWatts/m^2,SoftwareType,DateUTC
2013-10-26 00:01:00,37.2,29.7,30.09,WNW,284,0.0,3.0,74,0.00,,,0.00,0.0,meteohub,2013-10-26 04:01:00,
2013-10-26 00:02:00,37.2,29.7,30.09,WNW,284,0.0,3.0,74,0.00,,,0.00,0.0,meteohub,2013-10-26 04:02:00,
2013-10-26 00:03:00,37.0,29.5,30.09,WNW,284,0.0,3.0,74,0.00,,,0.00,0.0,meteohub,2013-10-26 04:03:00,
2013-10-26 00:07:00,37.0,29.8,30.09,WNW,284,0.0,3.0,75,0.00,,,0.00,0.0,meteohub,2013-10-26 04:07:00,
2013-10-26 00:12:00,37.0,30.2,30.09,WNW,284,1.0,2.0,76,0.00,,,0.00,0.0,meteohub,2013-10-26 04:12:00,
2013-10-26 00:17:00,37.0,30.2,30.09,WNW,284,0.0,1.0,76,0.00,,,0.00,0.0,meteohub,2013-10-26 04:17:00,
2013-10-26 00:23:00,36.9,30.4,30.09,WNW,284,0.0,2.0,77,0.00,,,0.00,0.0,meteohub,2013-10-26 04:23:00,
2013-10-26 00:24:00,36.7,30.2,30.09,WNW,284,0.0,2.0,77,0.00,,,0.00,0.0,meteohub,2013-10-26 04:24:00,
2013-10-26 00:30:00,36.3,30.2,30.09,WNW,284,0.0,2.0,78,0.00,,,0.00,0.0,meteohub,2013-10-26 04:30:00,
2013-10-26 00:35:00,36.3,29.8,30.09,WNW,284,0.0,2.0,77,0.00,,,0.00,0.0,meteohub,2013-10-26 04:35:00,
2013-10-26 00:41:00,36.3,30.2,30.09,WNW,284,0.0,2.0,78,0.00,,,0.00,0.0,meteohub,2013-10-26 04:41:00,
2013-10-26 00:47:00,36.5,30.4,30.09,WNW,284,0.0,2.0,78,0.00,,,0.00,0.0,meteohub,2013-10-26 04:47:00,
2013-10-26 00:52:00,36.7,30.6,30.10,WNW,284,0.0,2.0,78,0.00,,,0.00,0.0,meteohub,2013-10-26 04:52:00,
2013-10-26 00:58:00,36.7,30.6,30.09,WNW,284,0.0,1.0,78,0.00,,,0.00,0.0,meteohub,2013-10-26 04:58:00,
2013-10-26 01:04:00,36.9,30.9,30.10,WSW,253,0.0,3.0,79,0.00,,,0.00,0.0,meteohub,2013-10-26 05:04:00,
2013-10-26 01:10:00,37.0,31.5,30.10,WSW,253,0.0,3.0,80,0.00,,,0.00,0.0,meteohub,2013-10-26 05:10:00,
2013-10-26 01:15:00,37.0,31.5,30.10,WSW,253,0.0,1.0,80,0.00,,,0.00,0.0,meteohub,2013-10-26 05:15:00,
2013-10-26 01:21:00,37.2,32.0,30.10,WSW,253,0.0,1.0,81,0.00,,,0.00,0.0,meteohub,2013-10-26 05:21:00,
2013-10-26 01:27:00,37.2,32.0,30.10,WSW,253,0.0,1.0,81,0.00,,,0.00,0.0,meteohub,2013-10-26 05:27:00,
2013-10-26 01:33:00,37.2,32.2,30.10,WSW,253,0.0,2.0,82,0.00,,,0.00,0.0,meteohub,2013-10-26 05:33:00,
2013-10-26 01:38:00,37.4,32.4,30.10,WSW,253,0.0,2.0,82,0.00,,,0.00,0.0,meteohub,2013-10-26 05:38:00,
2013-10-26 01:44:00,37.6,32.4,30.10,WSW,253,0.0,2.0,81,0.00,,,0.00,0.0,meteohub,2013-10-26 05:44:00,
2013-10-26 01:49:00,37.8,32.5,30.10,WSW,253,0.0,1.0,81,0.00,,,0.00,0.0,meteohub,2013-10-26 05:49:00,
2013-10-26 01:55:00,37.8,32.5,30.10,WSW,244,0.0,2.0,81,0.00,,,0.00,0.0,meteohub,2013-10-26 05:55:00,
2013-10-26 02:01:00,37.8,32.5,30.09,WSW,244,0.0,2.0,81,0.00,,,0.00,0.0,meteohub,2013-10-26 06:01:00,
2013-10-26 02:07:00,37.8,32.5,30.10,WSW,244,0.0,2.0,81,0.00,,,0.00,0.0,meteohub,2013-10-26 06:07:00,
2013-10-26 02:13:00,37.6,32.4,30.09,WSW,244,0.0,1.0,81,0.00,,,0.00,0.0,meteohub,2013-10-26 06:13:00,
2013-10-26 02:19:00,37.6,32.4,30.09,WSW,244,0.0,1.0,81,0.00,,,0.00,0.0,meteohub,2013-10-26 06:19:00,
2013-10-26 02:25:00,37.2,32.0,30.09,WSW,244,0.0,1.0,81,0.00,,,0.00,0.0,meteohub,2013-10-26 06:25:00,
2013-10-26 02:30:00,37.2,32.2,30.09,WSW,244,0.0,1.0,82,0.00,,,0.00,0.0,meteohub,2013-10-26 06:30:00,
2013-10-26 02:36:00,37.2,32.2,30.10,West,260,1.0,1.0,82,0.00,,,0.00,0.0,meteohub,2013-10-26 06:36:00,
2013-10-26 02:42:00,37.2,32.0,30.10,ENE,67,1.0,2.0,81,0.00,,,0.00,0.0,meteohub,2013-10-26 06:42:00,
2013-10-26 02:48:00,37.4,32.2,30.10,ENE,67,0.0,2.0,81,0.00,,,0.00,0.0,meteohub,2013-10-26 06:48:00,
2013-10-26 02:53:00,37.6,32.5,30.10,ENE,67,0.0,2.0,82,0.00,,,0.00,0.0,meteohub,2013-10-26 06:53:00,
2013-10-26 02:59:00,37.8,32.7,30.10,ENE,67,0.0,2.0,82,0.00,,,0.00,0.0,meteohub,2013-10-26 06:59:00,
2013-10-26 03:04:00,37.8,32.5,30.09,West,271,0.0,2.0,81,0.00,,,0.00,0.0,meteohub,2013-10-26 07:04:00,
2013-10-26 03:10:00,37.6,32.5,30.09,West,271,0.0,2.0,82,0.00,,,0.00,0.0,meteohub,2013-10-26 07:10:00,
2013-10-26 03:16:00,37.6,32.0,30.09,West,271,0.0,2.0,80,0.00,,,0.00,0.0,meteohub,2013-10-26 07:16:00,
2013-10-26 03:22:00,37.6,31.6,30.09,SSW,193,0.0,1.0,79,0.00,,,0.00,0.0,meteohub,2013-10-26 07:22:00,
2013-10-26 03:27:00,37.6,32.5,30.09,NNE,15,2.0,2.0,82,0.00,,,0.00,0.0,meteohub,2013-10-26 07:27:00,
2013-10-26 03:33:00,37.6,32.9,30.09,North,11,1.0,3.0,83,0.00,,,0.00,0.0,meteohub,2013-10-26 07:33:00,
2013-10-26 03:39:00,37.6,32.5,30.09,WNW,288,0.0,3.0,82,0.00,,,0.00,0.0,meteohub,2013-10-26 07:39:00,
2013-10-26 03:44:00,37.6,32.9,30.09,NNW,335,0.0,3.0,83,0.00,,,0.00,0.0,meteohub,2013-10-26 07:44:00,
2013-10-26 03:50:00,37.4,33.1,30.09,NNW,335,0.0,3.0,84,0.00,,,0.00,0.0,meteohub,2013-10-26 07:50:00,
2013-10-26 03:56:00,37.2,32.5,30.09,NNW,335,1.0,2.0,83,0.00,,,0.00,0.0,meteohub,2013-10-26 07:56:00,
2013-10-26 04:01:00,37.2,32.5,30.09,NNW,335,1.0,2.0,83,0.00,,,0.00,0.0,meteohub,2013-10-26 08:01:00,
2013-10-26 04:07:00,37.0,32.0,30.09,NNW,335,0.0,2.0,82,0.00,,,0.00,0.0,meteohub,2013-10-26 08:07:00,
2013-10-26 04:13:00,37.0,32.0,30.09,NNW,335,0.0,2.0,82,0.00,,,0.00,0.0,meteohub,2013-10-26 08:13:00,
2013-10-26 04:18:00,36.9,31.8,30.10,NNW,335,0.0,2.0,82,0.00,,,0.00,0.0,meteohub,2013-10-26 08:18:00,
2013-10-26 04:24:00,36.7,31.6,30.10,NNW,335,0.0,1.0,82,0.00,,,0.00,0.0,meteohub,2013-10-26 08:24:00,
2013-10-26 04:30:00,36.7,31.6,30.10,NNW,335,0.0,1.0,82,0.00,,,0.00,0.0,meteohub,2013-10-26 08:30:00,
2013-10-26 04:35:00,36.7,31.6,30.10,NNW,335,0.0,0.0,82,0.00,,,0.00,0.0,meteohub,2013-10-26 08:35:00,
2013-10-26 04:41:00,36.7,31.6,30.10,NNW,335,0.0,0.0,82,0.00,,,0.00,0.0,meteohub,2013-10-26 08:41:00,
2013-10-26 04:47:00,36.3,31.6,30.10,NNW,335,0.0,1.0,83,0.00,,,0.00,0.0,meteohub,2013-10-26 08:47:00,
2013-10-26 04:52:00,36.3,31.3,30.11,NNW,335,1.0,1.0,82,0.00,,,0.00,0.0,meteohub,2013-10-26 08:52:00,
2013-10-26 04:58:00,36.1,31.1,30.11,NNW,335,0.0,1.0,82,0.00,,,0.00,0.0,meteohub,2013-10-26 08:58:00,
2013-10-26 05:03:00,36.0,31.3,30.11,NNW,335,0.0,1.0,83,0.00,,,0.00,0.0,meteohub,2013-10-26 09:03:00,
2013-10-26 05:09:00,35.8,31.1,30.11,NNW,335,1.0,1.0,83,0.00,,,0.00,0.0,meteohub,2013-10-26 09:09:00,
2013-10-26 05:15:00,35.8,31.1,30.10,NNW,335,0.0,2.0,83,0.00,,,0.00,0.0,meteohub,2013-10-26 09:15:00,
2013-10-26 05:21:00,35.4,30.7,30.10,NNW,335,0.0,2.0,83,0.00,,,0.00,0.0,meteohub,2013-10-26 09:21:00,
2013-10-26 05:26:00,35.2,30.6,30.10,NNW,335,1.0,2.0,83,0.00,,,0.00,0.0,meteohub,2013-10-26 09:26:00,
2013-10-26 05:32:00,35.2,30.9,30.10,NNW,335,1.0,2.0,84,0.00,,,0.00,0.0,meteohub,2013-10-26 09:32:00,
2013-10-26 05:38:00,35.2,30.9,30.10,NNW,335,2.0,2.0,84,0.00,,,0.00,0.0,meteohub,2013-10-26 09:38:00,
2013-10-26 05:43:00,35.1,30.7,30.10,WNW,302,0.0,2.0,84,0.00,,,0.00,0.0,meteohub,2013-10-26 09:43:00,
2013-10-26 05:49:00,34.7,30.7,30.10,WNW,301,0.0,3.0,85,0.00,,,0.00,0.0,meteohub,2013-10-26 09:49:00,
2013-10-26 05:55:00,34.5,30.6,30.10,WNW,292,2.0,3.0,85,0.00,,,0.00,0.0,meteohub,2013-10-26 09:55:00,
2013-10-26 06:00:00,34.3,30.6,30.10,WNW,292,0.0,3.0,86,0.00,,,0.00,0.0,meteohub,2013-10-26 10:00:00,
2013-10-26 06:06:00,34.2,30.7,30.10,WNW,287,0.0,3.0,87,0.00,,,0.00,0.0,meteohub,2013-10-26 10:06:00,
2013-10-26 06:11:00,34.0,30.7,30.10,West,265,0.0,2.0,88,0.00,,,0.00,0.0,meteohub,2013-10-26 10:11:00,
2013-10-26 06:17:00,33.6,30.7,30.10,WSW,249,2.0,2.0,89,0.00,,,0.00,0.0,meteohub,2013-10-26 10:17:00,
2013-10-26 06:23:00,34.0,31.3,30.10,WSW,249,1.0,2.0,90,0.00,,,0.00,0.0,meteohub,2013-10-26 10:23:00,
2013-10-26 06:28:00,34.0,31.3,30.10,WSW,249,1.0,2.0,90,0.00,,,0.00,0.0,meteohub,2013-10-26 10:28:00,
2013-10-26 06:34:00,33.8,31.1,30.10,WSW,249,0.0,2.0,90,0.00,,,0.00,0.0,meteohub,2013-10-26 10:34:00,
2013-10-26 06:40:00,33.8,31.1,30.10,WSW,249,1.0,2.0,90,0.00,,,0.00,0.0,meteohub,2013-10-26 10:40:00,
2013-10-26 06:45:00,33.8,31.1,30.11,WSW,249,0.0,2.0,90,0.00,,,0.00,0.0,meteohub,2013-10-26 10:45:00,
2013-10-26 06:51:00,33.6,30.9,30.10,WSW,249,0.0,2.0,90,0.00,,,0.00,0.0,meteohub,2013-10-26 10:51:00,
2013-10-26 06:56:00,33.6,31.3,30.10,WSW,249,1.0,1.0,91,0.00,,,0.00,0.0,meteohub,2013-10-26 10:56:00,
2013-10-26 07:02:00,33.6,31.3,30.10,WSW,249,1.0,2.0,91,0.00,,,0.00,5.0,meteohub,2013-10-26 11:02:00,
2013-10-26 07:07:00,33.6,31.3,30.11,WSW,249,1.0,2.0,91,0.00,,,0.00,11.0,meteohub,2013-10-26 11:07:00,
2013-10-26 07:13:00,33.6,31.3,30.10,WSW,249,1.0,2.0,91,0.00,,,0.00,16.0,meteohub,2013-10-26 11:13:00,
2013-10-26 07:18:00,34.0,31.6,30.11,WSW,249,1.0,2.0,91,0.00,,,0.00,26.0,meteohub,2013-10-26 11:18:00,
2013-10-26 07:24:00,34.2,31.8,30.11,WSW,249,0.0,2.0,91,0.00,,,0.00,32.0,meteohub,2013-10-26 11:24:00,
2013-10-26 07:30:00,34.3,32.2,30.11,WSW,249,0.0,2.0,92,0.00,,,0.00,40.0,meteohub,2013-10-26 11:30:00,
2013-10-26 07:36:00,35.2,33.4,30.11,WSW,249,1.0,1.0,93,0.00,,,0.00,53.0,meteohub,2013-10-26 11:36:00,
2013-10-26 07:41:00,36.0,34.2,30.10,WSW,249,0.0,2.0,93,0.00,,,0.00,69.0,meteohub,2013-10-26 11:41:00,
2013-10-26 07:47:00,36.7,34.9,30.10,WSW,249,0.0,2.0,93,0.00,,,0.00,79.0,meteohub,2013-10-26 11:47:00,
2013-10-26 07:53:00,37.4,35.2,30.10,WSW,249,0.0,2.0,92,0.00,,,0.00,86.0,meteohub,2013-10-26 11:53:00,
2013-10-26 07:59:00,37.9,35.6,30.10,WSW,249,0.0,1.0,91,0.00,,,0.00,76.0,meteohub,2013-10-26 11:59:00,
2013-10-26 08:04:00,38.7,36.0,30.10,WSW,249,0.0,1.0,90,0.00,,,0.00,91.0,meteohub,2013-10-26 12:04:00,
2013-10-26 08:10:00,39.4,37.0,30.10,WSW,249,0.0,1.0,91,0.00,,,0.00,120.0,meteohub,2013-10-26 12:10:00,
2013-10-26 08:15:00,40.6,37.4,30.10,WSW,249,0.0,0.0,88,0.00,,,0.00,146.0,meteohub,2013-10-26 12:15:00,
2013-10-26 08:21:00,42.1,37.6,30.10,WSW,249,0.0,0.0,84,0.00,,,0.00,190.0,meteohub,2013-10-26 12:21:00,
2013-10-26 08:27:00,43.5,37.8,30.10,South,171,1.0,0.0,80,0.00,,,0.00,214.0,meteohub,2013-10-26 12:27:00,
2013-10-26 08:33:00,44.6,36.5,30.10,South,171,0.0,2.0,73,0.00,,,0.00,146.0,meteohub,2013-10-26 12:33:00,
2013-10-26 08:38:00,45.0,36.5,30.10,South,191,0.0,2.0,72,0.00,,,0.00,253.0,meteohub,2013-10-26 12:38:00,
2013-10-26 08:44:00,45.0,35.8,30.10,SSW,201,1.0,2.0,70,0.00,,,0.00,257.0,meteohub,2013-10-26 12:44:00,
2013-10-26 08:50:00,45.0,36.1,30.10,WSW,242,2.0,3.0,71,0.00,,,0.00,257.0,meteohub,2013-10-26 12:50:00,
2013-10-26 08:55:00,44.8,36.0,30.10,South,180,0.0,3.0,71,0.00,,,0.00,190.0,meteohub,2013-10-26 12:55:00,
2013-10-26 09:01:00,45.0,36.1,30.10,SSE,167,1.0,3.0,71,0.00,,,0.00,353.0,meteohub,2013-10-26 13:01:00,
2013-10-26 09:07:00,45.1,36.3,30.10,South,186,0.0,3.0,71,0.00,,,0.00,179.0,meteohub,2013-10-26 13:07:00,
2013-10-26 09:12:00,45.3,36.5,30.09,SW,215,0.0,3.0,71,0.00,,,0.00,163.0,meteohub,2013-10-26 13:12:00,
2013-10-26 09:17:00,45.3,36.1,30.09,WSW,238,0.0,3.0,70,0.00,,,0.00,179.0,meteohub,2013-10-26 13:17:00,
2013-10-26 09:23:00,45.3,36.1,30.09,SSW,198,1.0,5.0,70,0.00,,,0.00,413.0,meteohub,2013-10-26 13:23:00,
2013-10-26 09:29:00,46.2,37.0,30.09,South,169,1.0,5.0,70,0.00,,,0.00,297.0,meteohub,2013-10-26 13:29:00,
2013-10-26 09:34:00,46.6,37.8,30.09,WSW,242,2.0,4.0,71,0.00,,,0.00,265.0,meteohub,2013-10-26 13:34:00,
2013-10-26 09:40:00,46.8,36.7,30.09,South,185,3.0,4.0,68,0.00,,,0.00,169.0,meteohub,2013-10-26 13:40:00,
2013-10-26 09:46:00,46.8,37.2,30.09,SSE,165,1.0,9.0,69,0.00,,,0.00,172.0,meteohub,2013-10-26 13:46:00,
2013-10-26 09:51:00,46.8,37.6,30.08,WSW,248,2.0,9.0,70,0.00,,,0.00,234.0,meteohub,2013-10-26 13:51:00,
2013-10-26 09:57:00,46.9,38.1,30.08,SSW,202,1.0,9.0,71,0.00,,,0.00,239.0,meteohub,2013-10-26 13:57:00,
2013-10-26 10:03:00,47.1,38.1,30.08,South,180,4.0,6.0,71,0.00,,,0.00,306.0,meteohub,2013-10-26 14:03:00,
2013-10-26 10:08:00,47.5,37.8,30.08,South,188,3.0,7.0,69,0.00,,,0.00,209.0,meteohub,2013-10-26 14:08:00,
2013-10-26 10:14:00,47.5,37.8,30.08,SSE,160,4.0,7.0,69,0.00,,,0.00,186.0,meteohub,2013-10-26 14:14:00,
2013-10-26 10:20:00,47.3,37.6,30.07,South,190,2.0,8.0,69,0.00,,,0.00,199.0,meteohub,2013-10-26 14:20:00,
2013-10-26 10:26:00,47.1,38.1,30.07,SSE,167,3.0,8.0,71,0.00,,,0.00,213.0,meteohub,2013-10-26 14:26:00,
2013-10-26 10:32:00,47.7,39.0,30.06,SE,129,2.0,8.0,72,0.00,,,0.00,508.0,meteohub,2013-10-26 14:32:00,
2013-10-26 10:37:00,47.8,38.8,30.06,SW,231,0.0,7.0,71,0.00,,,0.00,490.0,meteohub,2013-10-26 14:37:00,
2013-10-26 10:43:00,48.6,39.6,30.05,South,186,2.0,7.0,71,0.00,,,0.00,610.0,meteohub,2013-10-26 14:43:00,
2013-10-26 10:49:00,49.3,39.9,30.05,ESE,113,3.0,8.0,70,0.00,,,0.00,334.0,meteohub,2013-10-26 14:49:00,
2013-10-26 10:55:00,49.6,40.3,30.05,WNW,290,4.0,8.0,70,0.00,,,0.00,657.0,meteohub,2013-10-26 14:55:00,
2013-10-26 11:01:00,49.8,40.1,30.05,South,183,0.0,13.0,69,0.00,,,0.00,366.0,meteohub,2013-10-26 15:01:00,
2013-10-26 11:06:00,49.6,39.6,30.05,NW,304,0.0,13.0,68,0.00,,,0.00,248.0,meteohub,2013-10-26 15:06:00,
2013-10-26 11:12:00,48.9,39.6,30.05,WSW,247,2.0,13.0,70,0.00,,,0.00,202.0,meteohub,2013-10-26 15:12:00,
2013-10-26 11:17:00,48.7,40.1,30.04,SE,132,3.0,10.0,72,0.00,,,0.00,237.0,meteohub,2013-10-26 15:17:00,
2013-10-26 11:23:00,48.9,39.6,30.04,SSE,148,6.0,10.0,70,0.00,,,0.00,715.0,meteohub,2013-10-26 15:23:00,
2013-10-26 11:29:00,49.3,40.3,30.04,West,271,1.0,9.0,71,0.00,,,0.00,439.0,meteohub,2013-10-26 15:29:00,
2013-10-26 11:34:00,49.6,40.6,30.04,West,267,3.0,12.0,71,0.00,,,0.00,694.0,meteohub,2013-10-26 15:34:00,
2013-10-26 11:40:00,50.0,40.3,30.03,NNW,328,0.0,12.0,69,0.00,,,0.00,638.0,meteohub,2013-10-26 15:40:00,
2013-10-26 11:46:00,50.2,40.1,30.03,WSW,252,1.0,11.0,68,0.00,,,0.00,410.0,meteohub,2013-10-26 15:46:00,
2013-10-26 11:52:00,49.8,39.7,30.03,SSW,208,6.0,14.0,68,0.00,,,0.00,626.0,meteohub,2013-10-26 15:52:00,
2013-10-26 11:57:00,50.0,39.6,30.03,SW,216,0.0,14.0,67,0.00,,,0.00,575.0,meteohub,2013-10-26 15:57:00,
2013-10-26 12:03:00,50.0,39.6,30.03,SW,225,0.0,14.0,67,0.00,,,0.00,575.0,meteohub,2013-10-26 16:03:00,
2013-10-26 12:09:00,49.8,39.7,30.02,SSE,148,6.0,11.0,68,0.00,,,0.00,577.0,meteohub,2013-10-26 16:09:00,
2013-10-26 12:14:00,49.8,39.4,30.02,SE,134,2.0,10.0,67,0.00,,,0.00,589.0,meteohub,2013-10-26 16:14:00,
2013-10-26 12:20:00,50.0,39.6,30.02,SSE,157,2.0,11.0,67,0.00,,,0.00,534.0,meteohub,2013-10-26 16:20:00,
2013-10-26 12:26:00,49.8,38.8,30.01,SW,232,2.0,11.0,66,0.00,,,0.00,510.0,meteohub,2013-10-26 16:26:00,
2013-10-26 12:31:00,49.8,38.8,30.01,SE,142,2.0,10.0,66,0.00,,,0.00,531.0,meteohub,2013-10-26 16:31:00,
2013-10-26 12:37:00,49.8,38.8,30.01,SE,134,5.0,11.0,66,0.00,,,0.00,522.0,meteohub,2013-10-26 16:37:00,
2013-10-26 12:42:00,49.8,38.1,30.00,SSW,192,4.0,11.0,64,0.00,,,0.00,478.0,meteohub,2013-10-26 16:42:00,
2013-10-26 12:48:00,49.6,38.3,30.00,SSE,167,4.0,11.0,65,0.00,,,0.00,315.0,meteohub,2013-10-26 16:48:00,
2013-10-26 12:54:00,49.6,37.9,30.00,WSW,251,3.0,10.0,64,0.00,,,0.00,265.0,meteohub,2013-10-26 16:54:00,
2013-10-26 13:00:00,49.6,38.7,29.99,SSE,159,7.0,10.0,66,0.00,,,0.00,227.0,meteohub,2013-10-26 17:00:00,
2013-10-26 13:05:00,49.5,38.7,29.99,SW,215,1.0,10.0,66,0.00,,,0.00,192.0,meteohub,2013-10-26 17:05:00,
2013-10-26 13:11:00,49.3,37.9,29.99,SW,215,2.0,8.0,65,0.00,,,0.00,158.0,meteohub,2013-10-26 17:11:00,
2013-10-26 13:17:00,48.9,38.1,29.99,South,182,3.0,12.0,66,0.00,,,0.00,149.0,meteohub,2013-10-26 17:17:00,
2013-10-26 13:23:00,48.7,37.9,29.99,ESE,116,2.0,12.0,66,0.00,,,0.00,149.0,meteohub,2013-10-26 17:23:00,
2013-10-26 13:29:00,48.6,38.5,29.99,WSW,244,4.0,12.0,68,0.00,,,0.00,169.0,meteohub,2013-10-26 17:29:00,
2013-10-26 13:34:00,48.6,38.8,29.99,WSW,238,1.0,11.0,69,0.00,,,0.00,142.0,meteohub,2013-10-26 17:34:00,
2013-10-26 13:40:00,48.6,39.2,29.99,SSW,209,5.0,11.0,70,0.00,,,0.00,139.0,meteohub,2013-10-26 17:40:00,
2013-10-26 13:45:00,48.6,38.8,29.99,SSW,202,0.0,8.0,69,0.00,,,0.00,134.0,meteohub,2013-10-26 17:45:00,
2013-10-26 13:51:00,48.6,38.8,29.99,SE,136,1.0,9.0,69,0.00,,,0.00,165.0,meteohub,2013-10-26 17:51:00,
2013-10-26 13:57:00,48.7,39.0,29.98,SW,218,7.0,12.0,69,0.00,,,0.00,134.0,meteohub,2013-10-26 17:57:00,
2013-10-26 14:03:00,48.7,39.4,29.98,SE,130,4.0,12.0,70,0.00,,,0.00,121.0,meteohub,2013-10-26 18:03:00,
2013-10-26 14:08:00,48.7,39.7,29.98,ESE,109,1.0,9.0,71,0.00,,,0.00,111.0,meteohub,2013-10-26 18:08:00,
2013-10-26 14:14:00,48.7,39.7,29.98,ENE,59,2.0,9.0,71,0.00,,,0.00,114.0,meteohub,2013-10-26 18:14:00,
2013-10-26 14:19:00,48.7,39.4,29.98,ESE,111,2.0,8.0,70,0.00,,,0.00,111.0,meteohub,2013-10-26 18:19:00,
2013-10-26 14:26:00,48.9,39.2,29.97,ESE,121,1.0,10.0,69,0.00,,,0.00,93.0,meteohub,2013-10-26 18:26:00,
2013-10-26 14:31:00,48.7,38.3,29.97,SE,133,0.0,10.0,67,0.00,,,0.00,84.0,meteohub,2013-10-26 18:31:00,
2013-10-26 14:37:00,48.9,37.2,29.97,SSE,147,4.0,10.0,64,0.00,,,0.00,84.0,meteohub,2013-10-26 18:37:00,
2013-10-26 14:43:00,48.9,36.5,29.97,SSE,153,2.0,9.0,62,0.00,,,0.00,79.0,meteohub,2013-10-26 18:43:00,
2013-10-26 14:48:00,49.1,36.7,29.97,WSW,238,3.0,9.0,62,0.00,,,0.00,72.0,meteohub,2013-10-26 18:48:00,
2013-10-26 14:54:00,49.3,35.6,29.96,South,182,3.0,9.0,59,0.00,,,0.00,70.0,meteohub,2013-10-26 18:54:00,
2013-10-26 15:00:00,49.3,34.2,29.96,ESE,111,1.0,8.0,56,0.00,,,0.00,63.0,meteohub,2013-10-26 19:00:00,
2013-10-26 15:05:00,49.3,33.8,29.97,SSE,165,6.0,9.0,55,0.00,,,0.00,46.0,meteohub,2013-10-26 19:05:00,
2013-10-26 15:11:00,49.3,32.9,29.97,ESE,115,2.0,11.0,53,0.00,,,0.00,44.0,meteohub,2013-10-26 19:11:00,
2013-10-26 15:17:00,48.9,31.6,29.97,SW,217,6.0,11.0,51,0.00,,,0.00,42.0,meteohub,2013-10-26 19:17:00,
2013-10-26 15:22:00,48.6,32.2,29.97,East,81,2.0,13.0,53,0.00,,,0.00,39.0,meteohub,2013-10-26 19:22:00,
2013-10-26 15:28:00,48.4,32.5,29.97,SW,218,1.0,13.0,54,0.00,,,0.00,32.0,meteohub,2013-10-26 19:28:00,
2013-10-26 15:34:00,48.0,33.1,29.97,West,270,3.0,14.0,56,0.00,,,0.00,26.0,meteohub,2013-10-26 19:34:00,
2013-10-26 15:40:00,47.8,34.2,29.97,ESE,112,1.0,14.0,59,0.00,,,0.00,26.0,meteohub,2013-10-26 19:40:00,
2013-10-26 15:45:00,47.7,34.5,29.97,WSW,249,0.0,9.0,60,0.00,,,0.00,25.0,meteohub,2013-10-26 19:45:00,
2013-10-26 15:51:00,47.7,34.5,29.97,SSE,166,8.0,9.0,60,0.00,,,0.00,21.0,meteohub,2013-10-26 19:51:00,
2013-10-26 15:57:00,47.5,34.3,29.97,WSW,250,3.0,10.0,60,0.00,,,0.00,21.0,meteohub,2013-10-26 19:57:00,
2013-10-26 16:02:00,47.1,35.2,29.97,WSW,248,2.0,13.0,63,0.00,,,0.00,23.0,meteohub,2013-10-26 20:02:00,
2013-10-26 16:08:00,46.8,34.9,29.96,SW,217,5.0,13.0,63,0.00,,,0.00,23.0,meteohub,2013-10-26 20:08:00,
2013-10-26 16:14:00,46.8,34.0,29.95,WNW,286,0.0,13.0,61,0.00,,,0.00,19.0,meteohub,2013-10-26 20:14:00,
2013-10-26 16:19:00,46.8,33.3,29.95,South,178,1.0,9.0,59,0.00,,,0.00,21.0,meteohub,2013-10-26 20:19:00,
2013-10-26 16:25:00,46.9,33.8,29.94,West,265,1.0,6.0,60,0.00,,,0.00,21.0,meteohub,2013-10-26 20:25:00,
2013-10-26 16:31:00,46.9,33.8,29.94,West,265,0.0,6.0,60,0.00,,,0.00,19.0,meteohub,2013-10-26 20:31:00,
2013-10-26 16:36:00,46.8,34.9,29.94,West,265,0.0,3.0,63,0.00,,,0.00,19.0,meteohub,2013-10-26 20:36:00,
2013-10-26 16:42:00,46.8,35.2,29.94,West,265,0.0,2.0,64,0.00,,,0.00,19.0,meteohub,2013-10-26 20:42:00,
2013-10-26 16:48:00,46.6,35.1,29.93,West,265,0.0,2.0,64,0.00,,,0.00,19.0,meteohub,2013-10-26 20:48:00,
2013-10-26 16:53:00,46.6,35.4,29.92,West,265,0.0,2.0,65,0.00,,,0.00,18.0,meteohub,2013-10-26 20:53:00,
2013-10-26 16:59:00,46.2,35.1,29.91,West,265,0.0,2.0,65,0.00,,,0.00,12.0,meteohub,2013-10-26 20:59:00,
2013-10-26 17:05:00,46.2,34.7,29.91,West,265,0.0,2.0,64,0.00,,,0.00,12.0,meteohub,2013-10-26 21:05:00,
2013-10-26 17:11:00,46.2,35.4,29.91,West,265,0.0,2.0,66,0.00,,,0.00,11.0,meteohub,2013-10-26 21:11:00,
2013-10-26 17:16:00,46.2,35.1,29.91,WSW,255,0.0,2.0,65,0.00,,,0.00,11.0,meteohub,2013-10-26 21:16:00,
2013-10-26 17:22:00,46.8,34.9,29.91,West,261,2.0,4.0,63,0.00,,,0.00,7.0,meteohub,2013-10-26 21:22:00,
2013-10-26 17:27:00,47.5,35.1,29.91,SE,142,0.0,4.0,62,0.00,,,0.00,0.0,meteohub,2013-10-26 21:27:00,
2013-10-26 17:33:00,48.0,34.9,29.90,East,80,2.0,4.0,60,0.00,,,0.00,0.0,meteohub,2013-10-26 21:33:00,
2013-10-26 17:39:00,48.6,35.2,29.90,SSW,206,1.0,4.0,60,0.00,,,0.00,0.0,meteohub,2013-10-26 21:39:00,
2013-10-26 17:45:00,49.1,34.9,29.90,West,265,1.0,4.0,58,0.00,,,0.00,0.0,meteohub,2013-10-26 21:45:00,
2013-10-26 17:50:00,49.5,35.2,29.90,South,176,1.0,6.0,58,0.00,,,0.00,0.0,meteohub,2013-10-26 21:50:00,
2013-10-26 17:56:00,49.6,35.4,29.90,SE,124,0.0,6.0,58,0.00,,,0.00,0.0,meteohub,2013-10-26 21:56:00,
2013-10-26 18:02:00,49.6,35.4,29.90,West,260,2.0,6.0,58,0.00,,,0.00,0.0,meteohub,2013-10-26 22:02:00,
2013-10-26 18:07:00,49.8,34.7,29.90,SE,143,5.0,6.0,56,0.00,,,0.00,0.0,meteohub,2013-10-26 22:07:00,
2013-10-26 18:13:00,50.2,35.6,29.89,WSW,242,1.0,7.0,57,0.00,,,0.00,0.0,meteohub,2013-10-26 22:13:00,
2013-10-26 18:18:00,50.4,34.9,29.89,ESE,122,0.0,9.0,55,0.00,,,0.00,0.0,meteohub,2013-10-26 22:18:00,
2013-10-26 18:24:00,50.4,35.8,29.89,NW,312,1.0,9.0,57,0.00,,,0.00,0.0,meteohub,2013-10-26 22:24:00,
2013-10-26 18:30:00,50.4,35.2,29.89,SE,136,1.0,9.0,56,0.00,,,0.00,0.0,meteohub,2013-10-26 22:30:00,
2013-10-26 18:35:00,50.5,35.4,29.89,West,266,5.0,7.0,56,0.00,,,0.00,0.0,meteohub,2013-10-26 22:35:00,
2013-10-26 18:41:00,50.5,36.0,29.89,South,177,1.0,7.0,57,0.00,,,0.00,0.0,meteohub,2013-10-26 22:41:00,
2013-10-26 18:46:00,50.5,36.3,29.89,SSE,148,1.0,6.0,58,0.00,,,0.00,0.0,meteohub,2013-10-26 22:46:00,
2013-10-26 18:52:00,50.5,36.3,29.89,East,85,2.0,6.0,58,0.00,,,0.00,0.0,meteohub,2013-10-26 22:52:00,
2013-10-26 18:57:00,50.5,36.7,29.89,WSW,257,1.0,5.0,59,0.00,,,0.00,0.0,meteohub,2013-10-26 22:57:00,
2013-10-26 19:03:00,50.5,37.6,29.89,NNE,21,1.0,5.0,61,0.00,,,0.00,0.0,meteohub,2013-10-26 23:03:00,
2013-10-26 19:09:00,50.5,38.5,29.89,SE,146,2.0,5.0,63,0.00,,,0.00,0.0,meteohub,2013-10-26 23:09:00,
2013-10-26 19:14:00,50.4,38.3,29.89,WNW,294,3.0,3.0,63,0.00,,,0.00,0.0,meteohub,2013-10-26 23:14:00,
2013-10-26 19:20:00,50.7,37.4,29.88,SSE,155,5.0,6.0,60,0.00,,,0.00,0.0,meteohub,2013-10-26 23:20:00,
2013-10-26 19:26:00,51.3,37.8,29.88,ESE,117,1.0,8.0,60,0.00,,,0.00,0.0,meteohub,2013-10-26 23:26:00,
2013-10-26 19:31:00,51.4,37.9,29.88,South,170,1.0,9.0,60,0.00,,,0.00,0.0,meteohub,2013-10-26 23:31:00,
2013-10-26 19:37:00,51.4,37.9,29.88,SE,146,1.0,9.0,60,0.00,,,0.00,0.0,meteohub,2013-10-26 23:37:00,
2013-10-26 19:42:00,51.6,38.1,29.88,SSE,150,2.0,9.0,60,0.00,,,0.00,0.0,meteohub,2013-10-26 23:42:00,
2013-10-26 19:48:00,51.6,38.1,29.88,SE,140,0.0,8.0,60,0.00,,,0.00,0.0,meteohub,2013-10-26 23:48:00,
2013-10-26 19:54:00,51.6,37.8,29.88,WSW,250,2.0,8.0,59,0.00,,,0.00,0.0,meteohub,2013-10-26 23:54:00,
2013-10-26 20:00:00,51.8,36.1,29.88,SE,144,0.0,7.0,55,0.00,,,0.00,0.0,meteohub,2013-10-27 00:00:00,
2013-10-26 20:05:00,51.8,36.1,29.88,SW,221,2.0,12.0,55,0.00,,,0.00,0.0,meteohub,2013-10-27 00:05:00,
2013-10-26 20:11:00,51.8,36.1,29.88,SW,223,2.0,10.0,55,0.00,,,0.00,0.0,meteohub,2013-10-27 00:11:00,
2013-10-26 20:17:00,51.6,36.0,29.88,WSW,254,0.0,8.0,55,0.00,,,0.00,0.0,meteohub,2013-10-27 00:17:00,
2013-10-26 20:22:00,51.6,35.6,29.88,WSW,239,2.0,8.0,54,0.00,,,0.00,0.0,meteohub,2013-10-27 00:22:00,
2013-10-26 20:27:00,51.6,36.5,29.88,SSE,148,0.0,8.0,56,0.00,,,0.00,0.0,meteohub,2013-10-27 00:27:00,
2013-10-26 20:32:00,51.6,36.5,29.88,NW,319,1.0,6.0,56,0.00,,,0.00,0.0,meteohub,2013-10-27 00:32:00,
2013-10-26 20:38:00,51.6,36.9,29.88,North,5,0.0,6.0,57,0.00,,,0.00,0.0,meteohub,2013-10-27 00:38:00,
2013-10-26 20:44:00,51.6,36.5,29.88,West,267,2.0,8.0,56,0.00,,,0.00,0.0,meteohub,2013-10-27 00:44:00,
2013-10-26 20:49:00,51.6,35.1,29.88,WSW,244,4.0,12.0,53,0.00,,,0.00,0.0,meteohub,2013-10-27 00:49:00,
2013-10-26 20:55:00,51.6,35.1,29.88,SW,219,3.0,13.0,53,0.00,,,0.00,0.0,meteohub,2013-10-27 00:55:00,
2013-10-26 21:01:00,51.6,35.6,29.88,SE,142,2.0,13.0,54,0.00,,,0.00,0.0,meteohub,2013-10-27 01:01:00,
2013-10-26 21:07:00,51.6,34.5,29.88,West,265,6.0,13.0,52,0.00,,,0.00,0.0,meteohub,2013-10-27 01:07:00,
2013-10-26 21:12:00,51.6,34.5,29.88,SSE,156,4.0,8.0,52,0.00,,,0.00,0.0,meteohub,2013-10-27 01:12:00,
2013-10-26 21:18:00,51.6,34.5,29.88,SSE,149,2.0,9.0,52,0.00,,,0.00,0.0,meteohub,2013-10-27 01:18:00,
2013-10-26 21:24:00,51.4,34.9,29.88,SE,133,4.0,14.0,53,0.00,,,0.00,0.0,meteohub,2013-10-27 01:24:00,
2013-10-26 21:30:00,51.4,35.8,29.88,WSW,252,0.0,14.0,55,0.00,,,0.00,0.0,meteohub,2013-10-27 01:30:00,
2013-10-26 21:35:00,51.4,36.3,29.88,WSW,248,2.0,14.0,56,0.00,,,0.00,0.0,meteohub,2013-10-27 01:35:00,
2013-10-26 21:41:00,51.4,35.8,29.88,ESE,122,1.0,14.0,55,0.00,,,0.00,0.0,meteohub,2013-10-27 01:41:00,
2013-10-26 21:47:00,51.3,35.6,29.88,SW,215,2.0,14.0,55,0.00,,,0.00,0.0,meteohub,2013-10-27 01:47:00,
2013-10-26 21:52:00,51.3,36.1,29.88,SSE,154,4.0,8.0,56,0.00,,,0.00,0.0,meteohub,2013-10-27 01:52:00,
2013-10-26 21:58:00,51.3,36.1,29.88,West,273,6.0,19.0,56,0.00,,,0.00,0.0,meteohub,2013-10-27 01:58:00,
2013-10-26 22:03:00,51.3,36.1,29.88,SSE,155,2.0,19.0,56,0.00,,,0.00,0.0,meteohub,2013-10-27 02:03:00,
2013-10-26 22:09:00,51.1,36.9,29.88,West,266,0.0,19.0,58,0.00,,,0.00,0.0,meteohub,2013-10-27 02:09:00,
2013-10-26 22:15:00,51.1,37.2,29.88,West,261,1.0,10.0,59,0.00,,,0.00,0.0,meteohub,2013-10-27 02:15:00,
2013-10-26 22:21:00,51.1,37.2,29.88,South,178,1.0,10.0,59,0.00,,,0.00,0.0,meteohub,2013-10-27 02:21:00,
2013-10-26 22:26:00,50.9,37.6,29.88,SE,130,4.0,9.0,60,0.00,,,0.00,0.0,meteohub,2013-10-27 02:26:00,
2013-10-26 22:32:00,50.7,36.9,29.87,SE,135,3.0,9.0,59,0.00,,,0.00,0.0,meteohub,2013-10-27 02:32:00,
2013-10-26 22:37:00,50.7,37.4,29.87,SSE,165,3.0,9.0,60,0.00,,,0.00,0.0,meteohub,2013-10-27 02:37:00,
2013-10-26 22:42:00,50.7,37.4,29.88,South,173,3.0,9.0,60,0.00,,,0.00,0.0,meteohub,2013-10-27 02:42:00,
2013-10-26 22:48:00,50.5,36.3,29.87,South,172,4.0,7.0,58,0.00,,,0.00,0.0,meteohub,2013-10-27 02:48:00,
2013-10-26 22:54:00,50.5,36.3,29.87,South,174,1.0,17.0,58,0.00,,,0.00,0.0,meteohub,2013-10-27 02:54:00,
2013-10-26 22:59:00,50.5,36.3,29.87,WSW,238,8.0,17.0,58,0.00,,,0.00,0.0,meteohub,2013-10-27 02:59:00,
2013-10-26 23:05:00,50.5,36.0,29.87,SW,222,1.0,17.0,57,0.00,,,0.00,0.0,meteohub,2013-10-27 03:05:00,
2013-10-26 23:10:00,50.5,35.4,29.87,SSW,209,2.0,14.0,56,0.00,,,0.00,0.0,meteohub,2013-10-27 03:10:00,
2013-10-26 23:16:00,50.2,36.0,29.87,WSW,257,4.0,14.0,58,0.00,,,0.00,0.0,meteohub,2013-10-27 03:16:00,
2013-10-26 23:21:00,49.6,36.3,29.88,WNW,284,1.0,14.0,60,0.00,,,0.00,0.0,meteohub,2013-10-27 03:21:00,
2013-10-26 23:27:00,49.3,36.3,29.88,WSW,256,6.0,12.0,61,0.00,,,0.00,0.0,meteohub,2013-10-27 03:27:00,
2013-10-26 23:32:00,48.9,36.5,29.88,West,260,6.0,12.0,62,0.00,,,0.00,0.0,meteohub,2013-10-27 03:32:00,
2013-10-26 23:38:00,48.6,37.4,29.88,SE,146,6.0,12.0,65,0.00,,,0.00,0.0,meteohub,2013-10-27 03:38:00,
2013-10-26 23:44:00,47.8,38.1,29.88,ESE,117,4.0,12.0,69,0.00,,,0.00,0.0,meteohub,2013-10-27 03:44:00,
2013-10-26 23:50:00,47.3,38.7,29.88,SW,215,1.0,10.0,72,0.00,,,0.00,0.0,meteohub,2013-10-27 03:50:00,
2013-10-26 23:56:00,46.9,38.3,29.88,North,5,0.0,8.0,72,0.00,,,0.00,0.0,meteohub,2013-10-27 03:56:00,